Flag for U.S.A. Weather past 2 weeks in Moreno Valley, California, U.S.A.

Now
76 °F

Sunny.


Feels Like: 78 °F
Forecast: 63 / 87 °F
Wind: 3 mph from North

Location: Riverside / March Air Force Base

Current Time: Aug 22, 2014 at 10:55:20 AM

Latest Report: Aug 22, 2014 at 9:58 AM


Visibility: 10 mi

Pressure: 29.97 "Hg

Humidity: 63%

Dew point: 63 °F

Location of Moreno ValleyLocation

Historic Weather in Moreno Valley — Graph

°F

Moreno Valley temperature yesterday

Maximum temperature yesterday: 89 °F (at 3:58 PM)
Minimum temperature yesterday: 61 °F (at 5:58 AM)
Average temperature yesterday: 74 °F

Past Weeks' High & Low Weather Summary

 TemperatureHumidityPressure
High99 °F (Aug 18, 1:58 PM)100% (Aug 8, 4:58 AM)30.01 "Hg (Aug 8, 4:58 AM)
Low59 °F (Aug 8, 4:58 AM)16% (Aug 18, 1:58 PM)29.75 "Hg (Aug 18, 3:58 PM)
Average76 °F56%29.92 "Hg
* Reported Aug 7 8:58 AM — Aug 22 8:58 AM, Moreno Valley, Weather by CustomWeather, © 2014

Note: Actual official high and low records may vary slightly from our data, if they occured in-between our weather recording intervals... More about our weather records

Advertising

Moreno Valley weather history for previous 24 hours

 ConditionsComfort  
Time TempWeatherWind HumidityBarometerVisibility
8:58 AM
Aug 22
73 °FSunny.3 mph69%29.96 "Hg10 mi
7:58 AM70 °FSunny.2 mph77%29.94 "Hg10 mi
6:58 AM65 °FClear.2 mph91%29.94 "Hg10 mi
5:58 AM66 °FClear.3 mph88%29.92 "Hg10 mi
4:58 AM65 °FClear.1 mph93%29.93 "Hg10 mi
3:58 AM65 °FClear.3 mph92%29.93 "Hg10 mi
2:58 AM66 °FClear.1 mph86%29.94 "Hg10 mi
1:58 AM67 °FClear.1 mph87%29.94 "Hg10 mi
12:58 AM69 °FClear.1 mph81%29.94 "Hg10 mi
11:58 PM
Aug 21
69 °FClear.5 mph79%29.95 "Hg10 mi
10:58 PM71 °FClear.7 mph74%29.95 "Hg10 mi
9:58 PM73 °FClear.6 mph70%29.96 "Hg10 mi
8:58 PM76 °FClear.2 mph59%29.95 "Hg10 mi
7:58 PM77 °FSunny.6 mph60%29.93 "Hg10 mi
6:58 PM80 °FSunny.9 mph54%29.90 "Hg10 mi
5:58 PM85 °FSunny.14 mph46%29.86 "Hg10 mi
4:58 PM89 °FSunny.13 mph40%29.85 "Hg10 mi
3:58 PM89 °FSunny.2 mph36%29.86 "Hg10 mi
2:58 PM88 °FSunny.5 mph39%29.88 "Hg10 mi
1:58 PM85 °FScattered clouds.10 mph46%29.91 "Hg10 mi
12:58 PM83 °FPassing clouds.2 mph50%29.92 "Hg10 mi
11:58 AM80 °FScattered clouds.5 mph58%29.94 "Hg10 mi
10:58 AM76 °FSunny.2 mph67%29.95 "Hg10 mi
Weather by CustomWeather, © 2014

See weather overviewHow to use our weather pages